Карточка аэропорта UNTT

Внимание!
Информация на этой странице в стадии наполнения.
Если вы не увидели какой-то информации, или заметили неточность - пожалуйста сообщите нам!
Спасибо!
Команда RU-STAFF
Название аэропортаБогашево
Название аэропорта (англ.)Bogashevo
Превышение597 ft. (182 m.)
Координаты56°22.2', 85°12.6'
Высота перехода1000m
Эшелон переходаQFE>=743mm:FL040; QFE<743mm:FL050
Коды ответчика5230-5247
Зона ОрВДНовосибирск РПИ (UNNT)
Данные METARUNTT 250530Z 01004MPS 9999 SCT023CB BKN049 25/17 Q1004 R21/090060 NOSIG RMK QFE738
Проноз погоды (TAF)UNTT 250500Z 2506/2515 36003MPS 9999 SCT020CB TEMPO 2506/2509 30003G08MPS -TSRA
NOTAMshow/hide NOTAM
AWOS   TABLE

Информация о ВПП

ВПП Длина ВПП (м.) Покрытие Курс ВПП Частота ILS
212500Асфальтобетон205110.3
032500Асфальтобетон25 

Диспетчерские позиции




Спутниковое изображение